Location: Unspecified
(0.0000°N, 0.0000°E)
Time: 06:17:24
(UTC+00:00)

TBA - TO BE ASSIGNED - Pass Details

Date: 27 May 2026
Orbit: 462 x 464 km, 53.2° (Epoch: 8 June)

Event Time Altitude Azimuth Distance (km) Brightness Sun altitude
Rises 19:27:47 0° 232° (SW) 2,483 ? -21.0°
Reaches altitude 10° 19:30:09 10° 244° (WSW) 1,605 ? -21.5°
Maximum altitude 19:33:15 27° 304° (NW) 911 ? -22.3°
Drops below altitude 10° 19:36:22 10° 4° (N) 1,596 ? -23.0°
Sets 19:38:42 0° 16° (NNE) 2,466 ? -23.5°
